Location: *
(49.8044°N, 4.0558°E)
Time: 19:43:52
(UTC+00:00)

Daily predictions for brighter satellites

Satellite Brightness Start Highest point End
(mag) Time Altitude Azimuth Time Altitude Azimuth Time Altitude Azimuth
Cosmos 1933 4.5 19:56:29 10° SSW 20:00:23 48° WNW 20:04:18 10° N
Cosmos 1500 3.1 19:57:12 10° N 20:00:58 82° E 20:04:41 10° SSE
Cosmos 1437 2.4 20:01:58 10° SSW 20:04:47 84° W 20:07:39 10° N
Meteor 1-5 Rocket 4.1 20:00:54 10° N 20:06:16 69° ENE 20:11:32 10° SSE
Gbstr 26 Del rocket 4.5 19:59:40 10° WNW 20:07:41 84° NNE 20:14:36 10° ESE
ERS-2 3.9 20:05:46 10° N 20:09:09 37° WNW 20:12:32 10° SW
BREEZE M DEB (TANK) 4.4 20:05:06 10° W 20:09:15 88° S 20:24:26 10° E
Terra 3.4 20:12:56 10° ESE 20:16:31 22° ENE 20:20:07 10° N
Meteor 1-11 Rocket 4.2 20:11:50 10° N 20:17:39 51° ENE 20:23:20 10° SSE
MetOp-B 4.2 20:12:21 10° SSE 20:17:40 71° ENE 20:23:01 10° N
Cosmos 1515 Rocket 3.5 20:16:25 10° S 20:20:48 70° E 20:25:09 10° NNE
Cosmos 1340 Rocket 4.3 20:18:13 10° NNE 20:21:34 24° ENE 20:24:45 11° ESE
Cosmos 1633 Rocket 4.3 20:17:46 10° NNW 20:21:56 42° W 20:26:06 10° SSW
Cosmos 2228 Rocket 3.9 20:19:36 10° SSE 20:23:37 34° E 20:27:41 10° NNE
Tianhe-1 3.0 20:22:13 10° SSW 20:23:58 14° SSE 20:25:07 12° SE
Cosmos 2315 Rocket 4.4 20:18:09 10° SSW 20:24:31 74° W 20:30:56 10° N
Cosmos 1869 Rocket 4.2 20:21:11 10° N 20:25:16 39° ENE 20:29:01 12° SE
Resurs 01 Rocket 1.9 20:22:51 10° S 20:27:16 69° WSW 20:31:43 10° NNW
BREEZE M DEB (TANK) 1.9 20:24:26 10° W 20:29:21 63° SSW 20:31:13 14° ESE
SWARM C 4.5 20:26:06 10° N 20:29:26 87° E 20:32:45 10° S
SWARM A 4.2 20:26:13 10° N 20:29:33 90° W 20:32:52 10° S
Cosmos 2082 Rocket 2.3 20:24:25 10° NNW 20:30:05 81° WSW 20:35:40 10° SSE
Cosmos 1328 Rocket 4.4 20:27:32 10° SSW 20:31:52 54° WNW 20:36:12 10° N
USA 305 4.5 20:29:32 10° W 20:33:03 25° SW 20:36:33 10° SSE
SPOT 1/Viking Rocket 3.6 20:28:03 10° SSE 20:33:14 76° ENE 20:38:25 10° NNW
ERS-1 Rocket 3.7 20:29:27 12° SE 20:33:50 41° ENE 20:38:32 10° N
Cosmos 1943 Rocket 3.2 20:35:06 10° SSE 20:39:40 26° ESE 20:44:14 10° NE
Spot 2 Rocket 3.6 20:35:19 11° SSE 20:40:02 66° ENE 20:45:03 10° N
EP 1 4.3 20:38:16 10° SW 20:41:20 89° NE 20:43:57 10° NE
OBJECT-B 3.9 20:40:59 10° WSW 20:42:02 11° W 20:43:05 10° WNW
ERBS 2.5 20:38:58 10° NW 20:42:16 63° NNE 20:44:57 14° ESE
Meteor 1-10 Rocket 4.2 20:37:43 10° S 20:43:19 75° E 20:49:03 10° NNE
Cosmos 1536 3.1 20:41:44 10° N 20:45:42 53° ENE 20:48:44 16° SSE
CARTOSAT-1 3.7 20:42:25 14° SSE 20:46:03 62° ENE 20:50:20 10° N
Landsat 7 4.3 20:41:35 10° S 20:46:16 60° W 20:51:01 10° NNW
SPOT 5 3.5 20:42:26 14° SE 20:46:48 52° ENE 20:52:00 10° N
CZ-2C R/B 3.6 20:42:19 10° NNE 20:46:52 79° ESE 20:51:27 10° SSW
SPOT 3 Rocket 4.2 20:44:41 10° S 20:49:42 53° W 20:54:45 10° NNW
Cosmos 1271 Rocket 2.8 20:46:10 10° S 20:50:11 88° W 20:54:13 10° NNE
Cosmos 1933 Rocket 4.3 20:48:56 10° NNW 20:53:09 51° W 20:57:21 10° S
Cosmos 1680 Rocket 3.5 20:47:48 10° NNW 20:53:11 85° ENE 20:57:31 16° SSE
ISS -3.5 20:51:47 10° SW 20:55:02 47° SSE 20:58:18 10° ENE
Cosmos 2278 Rocket 2.9 20:50:46 10° SW 20:56:20 58° NW 21:01:56 10° NNE
Cosmos 2084 Rocket 3.4 20:53:27 10° NW 20:57:44 89° SSW 21:00:52 19° SE
SJ 16-02 2.1 20:54:29 10° SW 20:58:51 55° WNW 21:03:14 10° NNE
Cosmos 1544 3.3 20:55:31 10° N 20:59:04 52° ENE 21:01:17 21° SSE
Cosmos 2369 Rocket 3.5 20:58:46 16° SE 21:01:07 21° E 21:05:14 10° NE
Cosmos 1666 4.0 21:02:13 10° NNW 21:05:39 35° W 21:09:03 10° SSW
JB-3 4.2 21:05:04 10° NNE 21:08:56 71° ESE 21:12:01 15° S
Cosmos 1733 Rocket 3.8 21:05:58 10° N 21:10:02 38° ENE 21:12:25 21° SE
ARIANE 5 R/B 2.8 21:10:14 16° S 21:13:38 67° WSW 21:17:59 10° NNW
RESURS DK-1 3.9 21:11:16 10° NNW 21:14:52 27° NE 21:17:43 14° E
BREEZE-M DEB (TANK) 1.6 21:16:38 10° W 21:18:35 42° SSW 21:18:57 38° SSE
Iridium 4 Rocket 4.2 21:13:35 10° SSW 21:19:24 64° W 21:25:16 10° N
USA 245 4.0 21:18:31 15° SW 21:19:46 23° W 21:21:49 10° NW
CZ-4B DEB 4.4 21:21:13 31° SE 21:22:34 62° ENE 21:25:46 10° N
Cosmos 990 Rocket 4.0 21:19:39 10° SSW 21:24:54 86° WNW 21:30:12 10° NNE
Cosmos 1898 Rocket 3.5 21:22:35 10° SSW 21:27:53 84° ESE 21:33:16 10° NNE
ATLAS 2AS CENTAUR R/B 3.2 21:22:40 10° NW 21:29:46 53° WSW 21:34:29 20° S
USA 215 4.3 21:23:34 10° ENE 21:29:46 48° N 21:35:58 10° WNW
Meteor 1-27 Rocket 4.0 21:25:30 10° SSW 21:31:21 75° WNW 21:37:21 10° N
Cosmos 44 4.2 21:27:38 10° NW 21:32:46 44° WSW 21:35:56 21° S
Cosmos 1818 3.8 21:30:09 10° NW 21:35:35 63° WSW 21:38:46 25° SSE
Cosmos 2154 Rocket 4.4 21:29:30 10° NNW 21:35:42 60° W 21:40:59 14° S
Cosmos 1743 2.7 21:33:17 10° NNW 21:37:10 77° W 21:39:06 28° S
Cosmos 962 Rocket 4.4 21:34:27 10° N 21:40:37 88° W 21:44:46 22° S
Nadezhda 1 Rocket 4.3 21:36:15 10° SSW 21:42:29 65° WNW 21:48:39 10° N
Meteor 1-19 Rocket 4.3 21:43:17 26° SSE 21:46:09 54° E 21:51:27 10° NNE
BREEZE-M R/B 1.7 21:45:15 10° W 21:47:40 70° S 21:48:00 59° SE
H-2A R/B 3.4 21:45:56 10° NNE 21:50:08 85° ESE 21:52:23 26° SSW
Cosmos 44 Rocket 4.4 21:47:28 10° NNW 21:52:27 42° NE 21:56:13 16° ESE
Meteor 2-4 Rocket 4.4 21:50:59 26° SE 21:53:24 38° E 21:58:29 10° NNE
Terra 2.2 21:51:09 24° S 21:53:53 60° W 21:58:37 10° NNW
Gbstr 26 Del rocket 4.4 21:47:36 10° WNW 21:54:55 53° SW 21:58:20 27° SSE
Cosmos 1461 3.0 21:50:58 10° SW 21:55:41 83° SE 22:00:18 10° NE
Okean 1-7 4.2 21:56:31 24° ESE 21:57:23 26° E 22:00:56 10° NNE
Cosmos 1340 Rocket 4.1 21:54:22 10° NNW 21:58:06 35° W 22:00:21 20° SSW
Cosmos 1862 Rocket 3.4 21:57:49 33° S 21:59:41 75° E 22:04:01 10° NNE
Cosmos 2297 4.1 21:55:28 10° SW 22:01:08 67° WNW 22:06:48 10° NNE
Okean 1 3.2 22:00:55 33° SSW 22:02:38 86° W 22:06:39 10° N
Cosmos 1833 4.5 21:57:31 10° NNW 22:03:15 62° ENE 22:06:28 26° SE
ATLAS CENTAUR R/B 2.0 22:10:15 31° E 22:10:15 31° E 22:13:07 10° NE
Cosmos 1607 4.2 22:06:38 24° S 22:10:25 53° ESE 22:16:42 10° NE
ERS-1 Rocket 4.3 22:09:26 16° SSW 22:12:43 31° W 22:17:12 10° NNW
Cosmos 2082 Rocket 4.4 22:10:24 10° WNW 22:13:15 14° W 22:16:06 10° SW
Cosmos 2366 rocket 4.0 22:09:22 10° N 22:15:37 85° W 22:18:59 29° S
Cosmos 1515 4.4 22:13:58 26° SW 22:15:49 49° WNW 22:19:31 10° N
ERBS 4.0 22:15:32 10° W 22:17:42 20° WSW 22:17:42 20° WSW
Cosmos 2181 Rocket 3.9 22:16:13 25° S 22:20:01 86° W 22:26:11 10° N
Cosmos 1937 Rocket 4.3 22:17:29 10° SW 22:22:30 50° WNW 22:27:34 10° NNE
Cosmos 1943 Rocket 2.7 22:17:29 10° SW 22:23:02 60° WNW 22:28:35 10° NNE
ISS -3.4 22:28:26 10° W 22:31:48 67° N 22:35:11 10° ENE
Cosmos 1867 3.5 22:28:40 25° SSW 22:31:51 73° SE 22:37:20 10° NE
Spot 4 3.9 22:30:35 39° SSE 22:32:24 77° ENE 22:37:16 10° NNW
Cosmos 1656 Rocket 3.6 22:30:07 34° S 22:32:25 64° ESE 22:37:55 10° NNE
Cosmos 1238 Rocket 4.5 22:29:47 10° NNW 22:35:15 42° W 22:37:52 24° SW
Cosmos 1975 3.5 22:36:17 10° NNW 22:40:07 46° W 22:41:09 36° SW
Cosmos 1048 Rocket 4.0 22:35:34 10° NNW 22:40:53 73° WSW 22:42:47 40° S
Cosmos 2369 Rocket 2.3 22:40:29 19° SW 22:44:33 73° WNW 22:50:14 10° NNE
Cosmos 2098 4.2 22:41:54 10° NNW 22:44:53 72° W 22:44:53 72° W
Cosmos 2344 4.3 22:37:51 10° NW 22:46:53 87° NE 22:56:38 19° SE
ALOS 2 2.8 22:47:43 43° SE 22:48:57 63° ENE 22:53:19 10° N
BREEZE-M DEB (TANK) 4.4 22:34:16 10° WNW 22:50:29 61° SW 22:52:47 35° SSE
Okean 3 3.8 22:51:44 44° ESE 22:52:22 49° E 22:56:28 10° NNE
RESURS DK-1 2.9 22:49:05 10° NW 22:53:03 42° WSW 22:53:36 40° SW
SL-27 R/B 2.4 22:49:45 10° NNW 22:53:02 62° WSW 22:53:02 62° WSW
Lacrosse 5 2.6 22:54:17 34° SE 22:54:17 34° SE 22:58:39 10° ENE
Cosmos 1356 Rocket 3.5 22:52:27 10° N 22:56:47 77° ENE 22:57:43 53° SSE
NOSS 2-1 (E) 4.2 22:52:22 10° NW 22:57:09 79° NE 23:00:42 27° SE
Cosmos 1269 Rocket 4.4 22:55:38 10° NNW 23:00:52 57° ENE 23:03:10 32° SE
Cosmos 1300 Rocket 4.1 22:57:33 10° N 23:01:51 49° ENE 23:02:56 40° ESE
Nadezhda 3 Rocket 3.9 22:59:44 36° S 23:02:24 77° E 23:08:37 10° NNE
Meteor 1-12 Rocket 4.2 23:04:16 10° NNW 23:10:08 80° W 23:12:18 40° S
USA 215 3.7 23:05:51 10° E 23:12:16 61° NNE 23:18:42 10° WNW
Cosmos 2298 Rocket 4.2 23:09:55 30° SW 23:12:31 69° WNW 23:17:50 10° NNE
Thor Agena Rocket 4.2 23:09:14 10° NNE 23:14:16 43° E 23:15:40 36° SE
Sich 1 Rocket 3.6 23:11:02 10° N 23:15:36 77° E 23:16:39 52° SSE
COSMOS 2455 3.4 23:11:30 10° NNW 23:17:26 54° NE 23:21:46 18° ESE
Cosmos 1805 3.2 23:14:05 10° N 23:17:59 70° E 23:18:27 62° SE
Cosmos 494 Rocket 4.5 23:14:14 10° NNW 23:19:11 47° WSW 23:20:30 38° SW
Cosmos 1726 4.3 23:17:00 10° NNE 23:19:29 17° ENE 23:20:43 15° E
Cosmos 1605 Rocket 4.5 23:14:26 10° N 23:20:35 54° ENE 23:23:40 29° SE
Cosmos 1378 3.1 23:22:00 63° WSW 23:22:21 69° WNW 23:26:04 10° N
Cosmos 2242 Rocket 4.5 23:21:30 30° WSW 23:23:06 43° WNW 23:27:25 10° N
Cosmos 1066 Rocket 4.2 23:22:33 41° S 23:24:37 81° E 23:30:14 10° NNE
MTI 4.0 23:22:17 10° NNE 23:24:50 60° NNE 23:24:50 60° NNE
Okean 2 Rocket 3.1 23:22:47 10° N 23:27:12 70° E 23:28:09 52° SE
COBE Rocket 4.0 23:26:12 45° S 23:27:45 72° W 23:32:57 10° NNW
Meteor 1-15 Rocket 4.2 23:22:06 10° NNW 23:27:51 90° E 23:30:02 41° S
Cosmos 2151 Rocket 3.9 23:24:44 10° N 23:29:13 59° ENE 23:30:21 44° SE
Cosmos 2227 Rocket 3.5 23:27:27 10° NNW 23:32:38 35° NE 23:37:44 10° ESE
Cosmos 44 Rocket 3.8 23:29:08 10° NW 23:34:06 44° WSW 23:34:54 41° SW
Okean 1-7 4.2 23:33:20 27° WSW 23:34:48 35° WNW 23:38:47 10° N
Cosmos 2297 Rocket 3.1 23:29:31 10° NNW 23:34:57 44° NE 23:39:09 16° ESE
SAR-Lupe-2 3.5 23:31:46 10° N 23:35:22 73° WNW 23:35:36 69° WSW
PSLV R/B 4.4 23:31:50 10° NNE 23:35:51 36° E 23:36:26 34° ESE
Cosmos 1766 3.2 23:32:33 10° N 23:36:31 77° E 23:36:58 66° SE
NOSS 2-1 (C) 4.4 23:38:40 10° NW 23:43:27 52° SW 23:45:14 40° S
COSMOS 2487 2.8 23:43:15 10° NNW 23:46:11 51° WNW 23:46:11 51° WNW
Cosmos 1125 Rocket 4.2 23:44:32 26° WSW 23:47:15 49° WNW 23:52:19 10° NNE
ATLAS CENTAUR R/B 2.7 23:46:20 18° W 23:48:32 33° NW 23:52:05 10° NNE
Cosmos 1934 Rocket 4.0 23:45:04 10° NNW 23:51:08 65° W 23:53:27 38° SSW
BREEZE-M DEB (TANK) 4.3 23:50:37 10° WNW 23:51:45 18° WNW 23:51:45 18° WNW
Cosmos 1378 Rocket 4.0 23:53:20 42° SE 23:54:08 47° E 23:58:17 10° NNE
Cosmos 1470 3.5 23:52:20 10° N 23:56:08 45° ENE 23:57:01 38° ESE
